This demonstration page uses our WeatherBlox Daily Observations layout. Learn more.

Left ArrowRight Arrow

39.12711, -84.51439

Hourly Observations for August 6, 2018

Temp ( °F °C ) Dew Point ( °F °C ) Humidity (%) Winds ( mph kmh ) Pressure ( in mb ) Visibility ( mi km ) Precip ( " mm )
12:53 am 00:53 Clear with Mist and Fog 71 21.7 71 21.7 100 100 N N/A 30.17 1022 5 8 N/A
1:53 am 01:53 Clear 71 21.7 71 21.7 100 100 N N/A 30.14 1021 7 11 N/A
2:53 am 02:53 Clear with Mist and Fog 70 21.1 70 21.1 100 100 N N/A 30.14 1021 6 10 N/A
3:07 am 03:07 Clear with Mist and Fog 70 21.1 70 21.1 100 100 N N/A 30.12 1020 2 3 N/A
3:17 am 03:17 Clear with Fog 69 20.6 69 20.6 100 100 N N/A 30.12 1020 1 1 N/A
3:30 am 03:30 Clear with Mist and Fog 70 21.1 70 21.1 100 100 N N/A 30.12 1020 2 3 N/A
3:38 am 03:38 Clear with Mist and Fog 71 21.7 71 21.7 100 100 N N/A 30.12 1020 1 1 N/A
3:53 am 03:53 Clear with Mist and Fog 69 20.6 69 20.6 100 100 N N/A 30.13 1020 1 1 N/A
3:56 am 03:56 Clear with Mist and Fog 69 20.6 69 20.6 100 100 N N/A 30.12 1020 3 4 N/A
4:06 am 04:06 Clear with Mist and Fog 69 20.6 69 20.6 100 100 N N/A 30.12 1020 2 2 N/A
4:10 am 04:10 Clear with Mist and Fog 69 20.6 69 20.6 100 100 N N/A 30.12 1020 3 5 N/A
4:25 am 04:25 Clear with Mist and Fog 68 20 68 20 100 100 N N/A 30.12 1020 2 2 N/A
4:32 am 04:32 Clear with Fog 68 20 68 20 100 100 N N/A 30.12 1020 0 0 N/A
4:45 am 04:45 Mostly Cloudy with Fog 68 20 68 20 100 100 N N/A 30.12 1020 1 1 N/A
4:53 am 04:53 Mostly Clear with Mist and Fog 69 20.6 69 20.6 100 100 N N/A 30.12 1020 1 2 N/A
4:56 am 04:56 Mostly Cloudy with Mist and Fog 69 20.6 69 20.6 100 100 N N/A 30.12 1020 1 1 N/A
5:26 am 05:26 Mostly Cloudy with Mist and Fog 67 19.4 67 19.4 100 100 N N/A 30.12 1020 1 2 N/A
5:34 am 05:34 Mostly Cloudy with Fog 69 20.6 69 20.6 100 100 N N/A 30.12 1020 1 1 N/A
5:44 am 05:44 Cloudy with Mist and Fog 68 20 68 20 100 100 N N/A 30.12 1020 2 3 N/A
5:51 am 05:51 Cloudy with Mist and Fog 68 20 68 20 100 100 N N/A 30.12 1020 3 5 N/A
5:53 am 05:53 Cloudy with Mist and Fog 68 20 68 20 100 100 N N/A 30.13 1020 3 4 N/A
6:02 am 06:02 Cloudy with Mist and Fog 68 20 68 20 100 100 N N/A 30.12 1020 1 2 N/A
6:12 am 06:12 Mostly Cloudy with Fog 68 20 68 20 100 100 N N/A 30.12 1020 0 0 N/A
6:28 am 06:28 Mostly Cloudy with Fog 68 20 68 20 100 100 N N/A 30.12 1020 1 1 N/A
6:37 am 06:37 Mostly Cloudy with Fog 68 20 68 20 100 100 N N/A 30.12 1020 0 0 N/A
6:53 am 06:53 Mostly Cloudy with Fog 68 20 68 20 100 100 N N/A 30.14 1021 5 8 N/A
7:36 am 07:36 Partly Cloudy with Mist and Fog 69 20.6 69 20.6 100 100 N N/A 30.12 1020 1 2 N/A
7:53 am 07:53 Partly Cloudy with Mist and Fog 70 21.1 70 21.1 100 100 N N/A 30.14 1021 3 5 N/A
8:32 am 08:32 Sunny 74 23.3 72 22.2 94 94 N N/A 30.12 1020 7 11 N/A
8:53 am 08:53 Sunny 76 24.4 73 22.8 91 91 N N/A 30.14 1021 7 11 N/A
9:53 am 09:53 Sunny 80 26.7 73 22.8 79 79 S 8 13 30.14 1021 10 16 N/A
10:53 am 10:53 Sunny 83 28.3 74 23.3 74 74 S 6 9 30.14 1021 10 16 N/A
11:53 am 11:53 Partly Cloudy 86 30 75 23.9 70 70 SSW 9 15 30.13 1020 10 16 N/A
12:53 pm 12:53 Mostly Cloudy 87 30.6 74 23.3 65 65 SSW 7 11 30.12 1020 10 16 N/A
1:53 pm 13:53 Mostly Cloudy 85 29.4 73 22.8 68 68 SW 12 19 30.10 1019 10 16 N/A
2:06 pm 14:06 Mostly Cloudy with Thunderstorms 88 31.1 75 23.9 66 66 SSW 9 15 30.09 1019 10 16 N/A
2:21 pm 14:21 Mostly Cloudy with Thunderstorms 80 26.7 74 23.3 82 82 SSW 12 19 30.09 1019 1 1 0.16 4.06
2:28 pm 14:28 Mostly Cloudy with Strong Thunderstorms 76 24.4 74 23.3 94 94 SW 9 15 30.09 1019 3 5 0.23 5.84
2:50 pm 14:50 Mostly Cloudy with Thunderstorms 75 24 73 23 94 94 E 3 6 30.09 1019 3 5 0.49 12.45
2:53 pm 14:53 Mostly Cloudy with Thunderstorms 75 23.9 74 23.3 96 96 E 3 6 30.10 1019 3 5 0.50 12.70
3:13 pm 15:13 Partly Cloudy 80 26.7 75 23.9 85 85 N N/A 30.06 1018 10 16 N/A
3:53 pm 15:53 Partly Cloudy 81 27.2 74 23.3 79 79 N 8 13 30.07 1018 10 16 N/A
4:53 pm 16:53 Partly Cloudy 84 28.9 76 24.4 77 77 VRB 3 6 30.04 1017 10 16 N/A
5:53 pm 17:53 Mostly Sunny 86 30 76 24.4 72 72 S 6 9 30.01 1016 10 16 N/A
6:53 pm 18:53 Mostly Sunny 86 30 77 25 75 75 S 3 6 30.01 1016 10 16 N/A
7:53 pm 19:53 Mostly Cloudy 84 28.9 75 23.9 74 74 S 8 13 30.01 1016 10 16 N/A
8:53 pm 20:53 Mostly Clear 80 26.7 74 23.3 82 82 S 5 7 30.02 1017 10 16 N/A
9:53 pm 21:53 Clear 80 26.7 75 23.9 85 85 VRB 3 6 30.03 1017 10 16 N/A
10:53 pm 22:53 Clear 77 25 75 23.9 94 94 N N/A 30.04 1017 10 16 N/A
11:53 pm 23:53 Clear 75 23.9 75 23.9 100 100 N N/A 30.04 1017 10 16 N/A

Powered by AerisWeather